Location: Milevsko
(49.4500°N, 14.3670°E)
Time: 15:06:42
(UTC+01:00)

ISS - Pass Details

Date: 16 November 2025
Orbit: 416 x 420 km, 51.6° (Epoch: 09 December)

Event Time Altitude Azimuth Distance (km) Brightness Sun altitude
Rises 18:56:19 0° 254° (WSW) 2,363 1.3 -25.4°
Reaches altitude 10° 18:58:25 10° 255° (WSW) 1,499 0.0 -25.7°
Enters shadow 19:00:09 28° 258° (WSW) 816 -1.7 -26.0°
